Time,TemperatureF,DewpointF,PressureIn,WindDirection,WindDirectionDegrees,WindSpeedMPH,WindSpeedGustMPH,Humidity,HourlyPrecipIn,Conditions,Clouds,dailyrainin,SoftwareType,DateUTC
2013-06-19 00:01:00,59.9,56.6,29.79,North,-999,0.0,0.0,89,0.00,,,0.00,pywws,2013-06-18 23:01:00,
2013-06-19 00:11:00,59.5,56.6,29.79,East,90,0.0,1.6,90,0.00,,,0.00,pywws,2013-06-18 23:11:00,
2013-06-19 00:16:00,59.2,56.2,29.80,East,90,0.0,1.6,90,0.00,,,0.00,pywws,2013-06-18 23:16:00,
2013-06-19 00:21:00,58.8,55.9,29.80,West,270,0.0,0.7,90,0.00,,,0.00,pywws,2013-06-18 23:21:00,
2013-06-19 00:31:00,58.5,55.5,29.80,SW,225,0.0,0.0,90,0.00,,,0.00,pywws,2013-06-18 23:31:00,
2013-06-19 00:36:00,57.9,55.3,29.80,West,270,0.0,0.0,91,0.00,,,0.00,pywws,2013-06-18 23:36:00,
2013-06-19 00:41:00,57.7,55.1,29.81,SE,135,0.0,0.0,91,0.00,,,0.00,pywws,2013-06-18 23:41:00,
2013-06-19 00:51:00,57.7,55.1,29.81,WSW,248,1.6,4.5,91,0.00,,,0.00,pywws,2013-06-18 23:51:00,
2013-06-19 00:56:00,57.7,54.5,29.81,SE,135,0.0,2.2,89,0.00,,,0.00,pywws,2013-06-18 23:56:00,
2013-06-19 01:01:00,57.7,54.5,29.81,West,270,0.0,0.7,89,0.00,,,0.00,pywws,2013-06-19 00:01:00,
2013-06-19 01:11:00,57.6,53.7,29.81,WSW,248,0.0,0.7,87,0.00,,,0.00,pywws,2013-06-19 00:11:00,
2013-06-19 01:16:00,57.2,53.4,29.81,SE,135,0.0,0.7,87,0.00,,,0.00,pywws,2013-06-19 00:16:00,
2013-06-19 01:21:00,57.2,53.7,29.81,SW,225,0.0,0.7,88,0.00,,,0.00,pywws,2013-06-19 00:21:00,
2013-06-19 01:31:00,56.8,53.0,29.81,SW,225,0.0,0.7,87,0.00,,,0.00,pywws,2013-06-19 00:31:00,
2013-06-19 01:36:00,56.7,52.8,29.81,SW,225,0.0,1.6,87,0.00,,,0.00,pywws,2013-06-19 00:36:00,
2013-06-19 01:41:00,56.5,52.7,29.81,NW,315,0.0,0.7,87,0.00,,,0.00,pywws,2013-06-19 00:41:00,
2013-06-19 01:51:00,56.5,52.7,29.81,NW,315,0.7,3.1,87,0.00,,,0.00,pywws,2013-06-19 00:51:00,
2013-06-19 01:56:00,56.3,52.5,29.82,NW,315,0.0,1.6,87,0.00,,,0.00,pywws,2013-06-19 00:56:00,
2013-06-19 02:01:00,56.1,52.0,29.82,East,90,0.0,1.6,86,0.00,,,0.00,pywws,2013-06-19 01:01:00,
2013-06-19 02:11:00,56.1,52.0,29.81,WNW,292,0.0,0.7,86,0.00,,,0.00,pywws,2013-06-19 01:11:00,
2013-06-19 02:16:00,55.9,51.8,29.81,SW,225,0.0,0.0,86,0.00,,,0.00,pywws,2013-06-19 01:16:00,
2013-06-19 02:21:00,55.8,51.9,29.81,NE,45,0.0,0.0,87,0.00,,,0.00,pywws,2013-06-19 01:21:00,
2013-06-19 02:31:00,55.9,52.1,29.81,SW,225,0.0,0.0,87,0.00,,,0.00,pywws,2013-06-19 01:31:00,
2013-06-19 02:36:00,55.6,52.1,29.81,SW,225,0.0,0.0,88,0.00,,,0.00,pywws,2013-06-19 01:36:00,
2013-06-19 02:41:00,55.6,52.1,29.81,SW,225,0.0,0.0,88,0.00,,,0.00,pywws,2013-06-19 01:41:00,
2013-06-19 02:52:00,55.2,52.0,29.81,SW,225,0.0,0.0,89,0.00,,,0.00,pywws,2013-06-19 01:52:00,
2013-06-19 03:01:00,55.0,51.9,29.82,North,-999,0.0,0.0,89,0.00,,,0.00,pywws,2013-06-19 02:01:00,
2013-06-19 03:11:00,55.0,51.9,29.82,SW,225,0.0,0.7,89,0.00,,,0.00,pywws,2013-06-19 02:11:00,
2013-06-19 03:16:00,55.0,51.9,29.81,West,270,0.0,1.6,89,0.00,,,0.00,pywws,2013-06-19 02:16:00,
2013-06-19 03:21:00,55.0,51.9,29.82,SW,225,0.0,1.6,89,0.00,,,0.00,pywws,2013-06-19 02:21:00,
2013-06-19 03:31:00,55.0,51.9,29.82,West,270,0.0,1.6,89,0.00,,,0.00,pywws,2013-06-19 02:31:00,
2013-06-19 03:36:00,55.0,52.2,29.81,NW,315,0.0,2.2,90,0.00,,,0.00,pywws,2013-06-19 02:36:00,
2013-06-19 03:41:00,54.9,51.7,29.81,SW,225,0.0,1.6,89,0.00,,,0.00,pywws,2013-06-19 02:41:00,
2013-06-19 03:51:00,54.7,51.5,29.82,SW,225,0.0,0.0,89,0.00,,,0.00,pywws,2013-06-19 02:51:00,
2013-06-19 03:56:00,54.7,51.5,29.82,SW,225,0.0,1.6,89,0.00,,,0.00,pywws,2013-06-19 02:56:00,
2013-06-19 04:01:00,54.5,51.6,29.81,West,270,0.0,0.7,90,0.00,,,0.00,pywws,2013-06-19 03:01:00,
2013-06-19 04:12:00,54.5,51.6,29.81,West,270,0.0,0.0,90,0.00,,,0.00,pywws,2013-06-19 03:12:00,
2013-06-19 04:21:00,54.3,51.4,29.81,North,-999,0.0,0.0,90,0.00,,,0.00,pywws,2013-06-19 03:21:00,
2013-06-19 04:31:00,54.3,51.7,29.81,West,270,0.0,1.6,91,0.00,,,0.00,pywws,2013-06-19 03:31:00,
2013-06-19 04:36:00,54.1,51.6,29.82,SW,225,0.0,0.7,91,0.00,,,0.00,pywws,2013-06-19 03:36:00,
2013-06-19 04:41:00,54.0,51.4,29.82,West,270,0.0,0.0,91,0.00,,,0.00,pywws,2013-06-19 03:41:00,
2013-06-19 04:51:00,54.0,51.7,29.82,SW,225,0.0,1.6,92,0.00,,,0.00,pywws,2013-06-19 03:51:00,
2013-06-19 04:56:00,53.8,51.5,29.82,SW,225,0.0,1.6,92,0.00,,,0.00,pywws,2013-06-19 03:56:00,
2013-06-19 05:01:00,53.8,51.5,29.82,West,270,0.0,1.6,92,0.00,,,0.00,pywws,2013-06-19 04:01:00,
2013-06-19 05:06:00,53.6,51.6,29.81,NW,315,0.7,2.2,93,0.00,,,0.00,pywws,2013-06-19 04:06:00,
2013-06-19 05:16:00,53.6,51.6,29.82,SE,135,0.0,1.6,93,0.00,,,0.00,pywws,2013-06-19 04:16:00,
2013-06-19 05:21:00,53.4,51.4,29.82,West,270,0.0,0.7,93,0.00,,,0.00,pywws,2013-06-19 04:21:00,
2013-06-19 05:31:00,53.4,51.4,29.82,West,270,0.0,1.6,93,0.00,,,0.00,pywws,2013-06-19 04:31:00,
2013-06-19 05:36:00,53.4,51.4,29.83,SW,225,0.0,2.2,93,0.00,,,0.00,pywws,2013-06-19 04:36:00,
2013-06-19 05:41:00,53.4,51.4,29.83,SW,225,0.7,2.2,93,0.00,,,0.00,pywws,2013-06-19 04:41:00,
2013-06-19 05:51:00,53.4,51.4,29.83,NW,315,0.0,2.2,93,0.00,,,0.00,pywws,2013-06-19 04:51:00,
2013-06-19 05:56:00,53.6,51.6,29.83,West,270,0.0,1.6,93,0.00,,,0.00,pywws,2013-06-19 04:56:00,
2013-06-19 06:01:00,53.6,51.6,29.83,SW,225,0.0,0.7,93,0.00,,,0.00,pywws,2013-06-19 05:01:00,
2013-06-19 06:12:00,53.6,51.6,29.83,SW,225,0.0,1.6,93,0.00,,,0.00,pywws,2013-06-19 05:12:00,
2013-06-19 06:21:00,53.6,51.9,29.83,West,270,0.0,0.0,94,0.00,,,0.00,pywws,2013-06-19 05:21:00,
2013-06-19 06:31:00,53.6,51.9,29.83,SW,225,0.7,3.8,94,0.00,,,0.00,pywws,2013-06-19 05:31:00,
2013-06-19 06:36:00,53.6,52.2,29.83,SE,135,0.0,0.0,95,0.00,,,0.00,pywws,2013-06-19 05:36:00,
2013-06-19 06:41:00,53.4,52.0,29.83,West,270,0.0,1.6,95,0.00,,,0.00,pywws,2013-06-19 05:41:00,
2013-06-19 06:51:00,53.4,52.0,29.83,SW,225,0.7,2.2,95,0.00,,,0.00,pywws,2013-06-19 05:51:00,
2013-06-19 06:56:00,53.1,51.9,29.83,SW,225,0.0,1.6,96,0.00,,,0.00,pywws,2013-06-19 05:56:00,
2013-06-19 07:01:00,52.9,51.8,29.83,SW,225,0.0,0.7,96,0.00,,,0.00,pywws,2013-06-19 06:01:00,
2013-06-19 07:11:00,52.9,51.8,29.82,WSW,248,0.0,1.6,96,0.00,,,0.00,pywws,2013-06-19 06:11:00,
2013-06-19 07:16:00,52.7,51.6,29.82,West,270,0.0,0.0,96,0.00,,,0.00,pywws,2013-06-19 06:16:00,
2013-06-19 07:21:00,52.5,51.4,29.83,West,270,0.0,0.0,96,0.00,,,0.00,pywws,2013-06-19 06:21:00,
2013-06-19 07:31:00,52.5,51.7,29.83,East,90,0.0,0.7,97,0.00,,,0.00,pywws,2013-06-19 06:31:00,
2013-06-19 07:36:00,54.5,53.1,29.83,NW,315,0.7,1.6,95,0.00,,,0.00,pywws,2013-06-19 06:36:00,
2013-06-19 07:41:00,54.9,52.6,29.83,NW,315,0.7,2.2,92,0.00,,,0.00,pywws,2013-06-19 06:41:00,
2013-06-19 07:51:00,55.4,52.2,29.84,West,270,0.0,1.6,89,0.00,,,0.00,pywws,2013-06-19 06:51:00,
2013-06-19 07:56:00,55.8,52.3,29.83,NW,315,0.0,2.2,88,0.00,,,0.00,pywws,2013-06-19 06:56:00,
2013-06-19 08:01:00,55.9,52.4,29.84,NW,315,0.7,1.6,88,0.00,,,0.00,pywws,2013-06-19 07:01:00,
2013-06-19 08:11:00,56.5,52.7,29.83,North,-999,0.0,0.0,87,0.00,,,0.00,pywws,2013-06-19 07:11:00,
2013-06-19 08:16:00,58.1,52.6,29.84,NW,315,0.0,1.6,82,0.00,,,0.00,pywws,2013-06-19 07:16:00,
2013-06-19 08:21:00,58.8,53.0,29.84,West,270,0.0,1.6,81,0.00,,,0.00,pywws,2013-06-19 07:21:00,
2013-06-19 08:31:00,60.6,53.0,29.84,North,-999,0.7,2.2,76,0.00,,,0.00,pywws,2013-06-19 07:31:00,
2013-06-19 08:36:00,62.6,54.2,29.85,NE,45,0.0,1.6,74,0.00,,,0.00,pywws,2013-06-19 07:36:00,
2013-06-19 08:41:00,62.8,52.8,29.85,NW,315,0.0,1.6,70,0.00,,,0.00,pywws,2013-06-19 07:41:00,
2013-06-19 08:51:00,63.0,52.2,29.85,NW,315,0.0,2.2,68,0.00,,,0.00,pywws,2013-06-19 07:51:00,
2013-06-19 08:56:00,64.2,53.0,29.85,West,270,1.6,3.1,67,0.00,,,0.00,pywws,2013-06-19 07:56:00,
2013-06-19 09:01:00,64.8,53.1,29.85,SW,225,0.7,3.1,66,0.00,,,0.00,pywws,2013-06-19 08:01:00,
2013-06-19 09:11:00,64.9,52.5,29.85,NW,315,0.7,2.2,64,0.00,,,0.00,pywws,2013-06-19 08:11:00,
2013-06-19 09:16:00,64.2,52.6,29.85,SW,225,0.0,0.7,66,0.00,,,0.00,pywws,2013-06-19 08:16:00,
2013-06-19 09:21:00,64.9,52.9,29.85,SW,225,0.7,3.1,65,0.00,,,0.00,pywws,2013-06-19 08:21:00,
2013-06-19 09:31:00,65.3,51.5,29.85,NE,45,1.6,3.8,61,0.00,,,0.00,pywws,2013-06-19 08:31:00,
2013-06-19 09:36:00,64.4,51.5,29.84,SW,225,0.7,2.2,63,0.00,,,0.00,pywws,2013-06-19 08:36:00,
2013-06-19 09:41:00,64.0,50.8,29.85,SW,225,1.6,3.1,62,0.00,,,0.00,pywws,2013-06-19 08:41:00,
2013-06-19 09:51:00,65.7,51.8,29.85,SW,225,2.2,4.5,61,0.00,,,0.00,pywws,2013-06-19 08:51:00,
2013-06-19 09:56:00,67.5,52.6,29.85,West,270,0.7,3.1,59,0.00,,,0.00,pywws,2013-06-19 08:56:00,
2013-06-19 10:01:00,65.7,51.4,29.85,SW,225,0.0,1.6,60,0.00,,,0.00,pywws,2013-06-19 09:01:00,
2013-06-19 10:11:00,66.4,52.5,29.84,SW,225,0.7,1.6,61,0.00,,,0.00,pywws,2013-06-19 09:11:00,
2013-06-19 10:16:00,67.3,51.5,29.85,West,270,1.6,6.9,57,0.00,,,0.00,pywws,2013-06-19 09:16:00,
2013-06-19 10:21:00,66.4,50.7,29.85,NW,315,1.6,4.5,57,0.00,,,0.00,pywws,2013-06-19 09:21:00,
2013-06-19 10:31:00,66.4,51.6,29.85,SW,225,2.2,4.5,59,0.00,,,0.00,pywws,2013-06-19 09:31:00,
2013-06-19 10:36:00,65.8,52.0,29.84,West,270,0.7,1.6,61,0.00,,,0.00,pywws,2013-06-19 09:36:00,
2013-06-19 10:41:00,66.7,52.4,29.85,SE,135,0.7,3.8,60,0.00,,,0.00,pywws,2013-06-19 09:41:00,
2013-06-19 10:51:00,65.7,49.5,29.85,SW,225,1.6,7.6,56,0.00,,,0.00,pywws,2013-06-19 09:51:00,
2013-06-19 10:56:00,65.8,51.1,29.84,SW,225,1.6,3.1,59,0.00,,,0.00,pywws,2013-06-19 09:56:00,
2013-06-19 11:01:00,66.2,50.5,29.85,NE,45,1.6,3.1,57,0.00,,,0.00,pywws,2013-06-19 10:01:00,
2013-06-19 11:11:00,66.2,49.5,29.85,SE,135,3.1,6.9,55,0.00,,,0.00,pywws,2013-06-19 10:11:00,
2013-06-19 11:16:00,67.3,51.0,29.85,SW,225,0.7,2.2,56,0.00,,,0.00,pywws,2013-06-19 10:16:00,
2013-06-19 11:21:00,67.6,50.4,29.85,West,270,1.6,3.1,54,0.00,,,0.00,pywws,2013-06-19 10:21:00,
2013-06-19 11:31:00,67.5,50.7,29.85,SW,225,1.6,6.0,55,0.00,,,0.00,pywws,2013-06-19 10:31:00,
2013-06-19 11:36:00,67.6,50.9,29.85,SW,225,1.6,3.1,55,0.00,,,0.00,pywws,2013-06-19 10:36:00,
2013-06-19 11:41:00,68.4,52.0,29.85,SW,225,0.0,1.6,56,0.00,,,0.00,pywws,2013-06-19 10:41:00,
2013-06-19 11:51:00,68.7,51.9,29.85,NE,45,0.7,3.1,55,0.00,,,0.00,pywws,2013-06-19 10:51:00,
2013-06-19 11:56:00,69.3,50.9,29.85,SW,225,1.6,4.5,52,0.00,,,0.00,pywws,2013-06-19 10:56:00,
2013-06-19 12:01:00,69.1,51.7,29.86,West,270,0.7,3.1,54,0.00,,,0.00,pywws,2013-06-19 11:01:00,
2013-06-19 12:11:00,70.0,53.1,29.86,SW,225,0.0,1.6,55,0.00,,,0.00,pywws,2013-06-19 11:11:00,
2013-06-19 12:16:00,70.7,52.2,29.86,West,270,0.7,3.1,52,0.00,,,0.00,pywws,2013-06-19 11:16:00,
2013-06-19 12:21:00,70.0,52.1,29.86,NW,315,2.2,4.5,53,0.00,,,0.00,pywws,2013-06-19 11:21:00,
2013-06-19 12:31:00,69.8,52.4,29.85,NW,315,2.2,4.5,54,0.00,,,0.00,pywws,2013-06-19 11:31:00,
2013-06-19 12:36:00,69.6,52.7,29.85,NE,45,0.7,2.2,55,0.00,,,0.00,pywws,2013-06-19 11:36:00,
2013-06-19 12:41:00,69.6,52.2,29.85,NW,315,0.7,3.1,54,0.00,,,0.00,pywws,2013-06-19 11:41:00,
2013-06-19 12:51:00,69.8,52.9,29.86,WNW,292,0.7,2.2,55,0.00,,,0.00,pywws,2013-06-19 11:51:00,
2013-06-19 12:56:00,70.0,53.1,29.85,WNW,292,0.7,3.1,55,0.00,,,0.00,pywws,2013-06-19 11:56:00,
2013-06-19 13:01:00,70.2,52.7,29.85,NW,315,1.6,4.5,54,0.00,,,0.00,pywws,2013-06-19 12:01:00,
2013-06-19 13:11:00,69.6,52.7,29.85,SW,225,0.7,3.1,55,0.00,,,0.00,pywws,2013-06-19 12:11:00,
2013-06-19 13:16:00,70.3,52.4,29.85,West,270,0.7,2.2,53,0.00,,,0.00,pywws,2013-06-19 12:16:00,
2013-06-19 13:21:00,70.7,52.2,29.85,SW,225,1.6,5.4,52,0.00,,,0.00,pywws,2013-06-19 12:21:00,
2013-06-19 13:31:00,70.7,51.7,29.85,SE,135,0.7,3.1,51,0.00,,,0.00,pywws,2013-06-19 12:31:00,
2013-06-19 13:36:00,70.5,50.4,29.85,SW,225,3.1,7.6,49,0.00,,,0.00,pywws,2013-06-19 12:36:00,
2013-06-19 13:41:00,70.2,51.7,29.85,NW,315,1.6,3.1,52,0.00,,,0.00,pywws,2013-06-19 12:41:00,
2013-06-19 13:51:00,70.9,52.4,29.85,SE,135,0.7,2.2,52,0.00,,,0.00,pywws,2013-06-19 12:51:00,
2013-06-19 13:56:00,72.0,53.4,29.85,SE,135,1.6,3.1,52,0.00,,,0.00,pywws,2013-06-19 12:56:00,
2013-06-19 14:01:00,72.1,53.0,29.85,West,270,0.7,3.1,51,0.00,,,0.00,pywws,2013-06-19 13:01:00,
2013-06-19 14:11:00,72.5,52.8,29.85,WNW,292,1.6,3.1,50,0.00,,,0.00,pywws,2013-06-19 13:11:00,
2013-06-19 14:16:00,73.2,51.8,29.85,SW,225,1.6,3.8,47,0.00,,,0.00,pywws,2013-06-19 13:16:00,
2013-06-19 14:21:00,72.7,51.8,29.85,WNW,292,2.2,4.5,48,0.00,,,0.00,pywws,2013-06-19 13:21:00,
2013-06-19 14:31:00,72.1,52.5,29.85,East,90,2.2,3.8,50,0.00,,,0.00,pywws,2013-06-19 13:31:00,
2013-06-19 14:36:00,72.7,53.5,29.85,West,270,0.7,3.1,51,0.00,,,0.00,pywws,2013-06-19 13:36:00,
2013-06-19 14:41:00,73.2,52.3,29.84,West,270,2.2,5.4,48,0.00,,,0.00,pywws,2013-06-19 13:41:00,
2013-06-19 14:51:00,73.6,53.2,29.85,SW,225,1.6,3.1,49,0.00,,,0.00,pywws,2013-06-19 13:51:00,
2013-06-19 14:56:00,73.8,53.9,29.84,SW,225,0.0,0.7,50,0.00,,,0.00,pywws,2013-06-19 13:56:00,
2013-06-19 15:01:00,73.8,53.4,29.84,NW,315,1.6,3.1,49,0.00,,,0.00,pywws,2013-06-19 14:01:00,
2013-06-19 15:11:00,75.0,55.6,29.84,East,90,0.0,0.7,51,0.00,,,0.00,pywws,2013-06-19 14:11:00,
2013-06-19 15:16:00,75.9,54.2,29.84,East,90,1.6,3.8,47,0.00,,,0.00,pywws,2013-06-19 14:16:00,
2013-06-19 15:21:00,75.7,54.6,29.84,NE,45,1.6,5.4,48,0.00,,,0.00,pywws,2013-06-19 14:21:00,
2013-06-19 15:31:00,75.4,53.7,29.85,WSW,248,2.2,4.5,47,0.00,,,0.00,pywws,2013-06-19 14:31:00,
2013-06-19 15:36:00,75.4,54.9,29.84,West,270,2.2,3.8,49,0.00,,,0.00,pywws,2013-06-19 14:36:00,
2013-06-19 15:41:00,75.6,54.5,29.85,NE,45,1.6,3.1,48,0.00,,,0.00,pywws,2013-06-19 14:41:00,
2013-06-19 15:51:00,72.5,52.2,29.84,NE,45,0.7,1.6,49,0.00,,,0.00,pywws,2013-06-19 14:51:00,
2013-06-19 15:56:00,72.0,53.4,29.84,NE,45,1.6,3.8,52,0.00,,,0.00,pywws,2013-06-19 14:56:00,
2013-06-19 16:01:00,71.8,53.2,29.84,NW,315,0.7,4.5,52,0.00,,,0.00,pywws,2013-06-19 15:01:00,
2013-06-19 16:11:00,71.8,53.7,29.84,WSW,248,0.0,2.2,53,0.00,,,0.00,pywws,2013-06-19 15:11:00,
2013-06-19 16:16:00,73.9,53.6,29.83,West,270,0.7,3.1,49,0.00,,,0.00,pywws,2013-06-19 15:16:00,
2013-06-19 16:21:00,74.3,53.3,29.83,SW,225,1.6,4.5,48,0.00,,,0.00,pywws,2013-06-19 15:21:00,
2013-06-19 16:31:00,74.3,53.3,29.84,NW,315,1.6,3.1,48,0.00,,,0.00,pywws,2013-06-19 15:31:00,
2013-06-19 16:36:00,74.5,54.1,29.84,NW,315,0.7,3.1,49,0.00,,,0.00,pywws,2013-06-19 15:36:00,
2013-06-19 16:41:00,74.8,53.8,29.83,SW,225,0.7,2.2,48,0.00,,,0.00,pywws,2013-06-19 15:41:00,
2013-06-19 16:51:00,73.9,53.0,29.83,West,270,1.6,3.1,48,0.00,,,0.00,pywws,2013-06-19 15:51:00,
2013-06-19 16:56:00,74.7,55.9,29.83,SW,225,0.0,2.2,52,0.00,,,0.00,pywws,2013-06-19 15:56:00,
2013-06-19 17:01:00,75.2,54.7,29.84,SE,135,0.7,2.2,49,0.00,,,0.00,pywws,2013-06-19 16:01:00,
2013-06-19 17:11:00,72.5,53.3,29.83,NW,315,0.7,1.6,51,0.00,,,0.00,pywws,2013-06-19 16:11:00,
2013-06-19 17:16:00,71.4,52.9,29.83,WSW,248,0.0,1.6,52,0.00,,,0.00,pywws,2013-06-19 16:16:00,
2013-06-19 17:21:00,71.2,53.7,29.83,SW,225,1.6,3.1,54,0.00,,,0.00,pywws,2013-06-19 16:21:00,
2013-06-19 17:31:00,74.5,55.1,29.83,NW,315,0.7,2.2,51,0.00,,,0.00,pywws,2013-06-19 16:31:00,
2013-06-19 17:36:00,76.6,54.9,29.83,West,270,0.7,1.6,47,0.00,,,0.00,pywws,2013-06-19 16:36:00,
2013-06-19 17:41:00,76.1,55.0,29.83,SW,225,0.7,2.2,48,0.00,,,0.00,pywws,2013-06-19 16:41:00,
2013-06-19 17:51:00,77.2,55.4,29.83,West,270,0.0,0.7,47,0.00,,,0.00,pywws,2013-06-19 16:51:00,
2013-06-19 17:56:00,77.5,55.7,29.83,NW,315,0.0,1.6,47,0.00,,,0.00,pywws,2013-06-19 16:56:00,
2013-06-19 18:01:00,77.7,54.7,29.82,NW,315,1.6,3.8,45,0.00,,,0.00,pywws,2013-06-19 17:01:00,
2013-06-19 18:11:00,76.8,54.5,29.82,West,270,0.0,2.2,46,0.00,,,0.00,pywws,2013-06-19 17:11:00,
2013-06-19 18:16:00,74.5,54.1,29.82,WSW,248,0.7,2.2,49,0.00,,,0.00,pywws,2013-06-19 17:16:00,
2013-06-19 18:21:00,75.4,54.3,29.82,WNW,292,1.6,4.5,48,0.00,,,0.00,pywws,2013-06-19 17:21:00,
2013-06-19 18:31:00,75.7,53.5,29.82,SW,225,0.0,3.1,46,0.00,,,0.00,pywws,2013-06-19 17:31:00,
2013-06-19 18:36:00,72.9,52.6,29.81,West,270,0.7,2.2,49,0.00,,,0.00,pywws,2013-06-19 17:36:00,
2013-06-19 18:41:00,71.2,52.2,29.82,East,90,0.7,1.6,51,0.00,,,0.00,pywws,2013-06-19 17:41:00,
2013-06-19 18:51:00,70.0,52.6,29.82,West,270,0.7,2.2,54,0.00,,,0.00,pywws,2013-06-19 17:51:00,
2013-06-19 18:56:00,72.3,54.7,29.82,NE,45,0.0,1.6,54,0.00,,,0.00,pywws,2013-06-19 17:56:00,
2013-06-19 19:01:00,73.8,53.9,29.82,NW,315,0.7,4.5,50,0.00,,,0.00,pywws,2013-06-19 18:01:00,
2013-06-19 19:11:00,74.3,53.9,29.83,NW,315,0.7,1.6,49,0.00,,,0.00,pywws,2013-06-19 18:11:00,
2013-06-19 19:16:00,75.0,54.5,29.82,SW,225,0.0,1.6,49,0.00,,,0.00,pywws,2013-06-19 18:16:00,
2013-06-19 19:21:00,73.9,53.0,29.82,ESE,112,0.0,1.6,48,0.00,,,0.00,pywws,2013-06-19 18:21:00,
2013-06-19 19:31:00,70.3,52.4,29.82,SW,225,0.7,2.2,53,0.00,,,0.00,pywws,2013-06-19 18:31:00,
2013-06-19 19:36:00,71.2,54.2,29.82,NE,45,0.0,0.7,55,0.00,,,0.00,pywws,2013-06-19 18:36:00,
2013-06-19 19:41:00,72.7,54.5,29.82,NW,315,0.0,1.6,53,0.00,,,0.00,pywws,2013-06-19 18:41:00,
2013-06-19 19:51:00,70.3,52.9,29.82,SW,225,1.6,3.8,54,0.00,,,0.00,pywws,2013-06-19 18:51:00,
2013-06-19 19:56:00,68.2,52.4,29.82,West,270,0.0,1.6,57,0.00,,,0.00,pywws,2013-06-19 18:56:00,
2013-06-19 20:01:00,68.2,53.3,29.81,ESE,112,0.0,1.6,59,0.00,,,0.00,pywws,2013-06-19 19:01:00,
2013-06-19 20:12:00,69.1,53.2,29.82,West,270,0.7,2.2,57,0.00,,,0.00,pywws,2013-06-19 19:12:00,
2013-06-19 20:21:00,67.1,52.3,29.82,East,90,0.7,3.1,59,0.00,,,0.00,pywws,2013-06-19 19:21:00,
2013-06-19 20:31:00,66.2,52.8,29.82,West,270,0.7,3.1,62,0.00,,,0.00,pywws,2013-06-19 19:31:00,
2013-06-19 20:36:00,65.5,52.5,29.82,SW,225,0.0,1.6,63,0.00,,,0.00,pywws,2013-06-19 19:36:00,
2013-06-19 20:41:00,65.3,52.4,29.82,West,270,0.0,0.7,63,0.00,,,0.00,pywws,2013-06-19 19:41:00,
2013-06-19 20:51:00,64.8,52.3,29.82,SW,225,0.0,1.6,64,0.00,,,0.00,pywws,2013-06-19 19:51:00,
2013-06-19 20:56:00,64.4,52.0,29.82,SW,225,0.0,0.0,64,0.00,,,0.00,pywws,2013-06-19 19:56:00,
2013-06-19 21:01:00,64.2,52.2,29.82,West,270,0.0,0.7,65,0.00,,,0.00,pywws,2013-06-19 20:01:00,
2013-06-19 21:12:00,63.9,51.9,29.82,SW,225,0.0,0.0,65,0.00,,,0.00,pywws,2013-06-19 20:12:00,
2013-06-19 21:21:00,63.3,52.2,29.82,NE,45,0.0,0.0,67,0.00,,,0.00,pywws,2013-06-19 20:21:00,
2013-06-19 21:31:00,62.8,51.7,29.83,SW,225,0.0,0.0,67,0.00,,,0.00,pywws,2013-06-19 20:31:00,
2013-06-19 21:36:00,62.4,51.7,29.83,WNW,292,0.0,0.0,68,0.00,,,0.00,pywws,2013-06-19 20:36:00,
2013-06-19 21:41:00,62.1,51.4,29.83,West,270,0.0,0.0,68,0.00,,,0.00,pywws,2013-06-19 20:41:00,
2013-06-19 21:52:00,61.7,52.6,29.83,West,270,0.0,0.0,72,0.00,,,0.00,pywws,2013-06-19 20:52:00,
2013-06-19 22:01:00,61.3,53.0,29.83,NE,45,0.0,0.0,74,0.00,,,0.00,pywws,2013-06-19 21:01:00,
2013-06-19 22:12:00,61.0,52.6,29.83,SE,135,0.0,0.0,74,0.00,,,0.00,pywws,2013-06-19 21:12:00,
2013-06-19 22:21:00,60.1,52.1,29.83,SE,135,0.0,0.0,75,0.00,,,0.00,pywws,2013-06-19 21:21:00,
2013-06-19 22:32:00,59.7,52.5,29.83,SE,135,0.0,0.0,77,0.00,,,0.00,pywws,2013-06-19 21:32:00,
2013-06-19 22:41:00,59.0,52.1,29.83,SE,135,0.0,0.0,78,0.00,,,0.00,pywws,2013-06-19 21:41:00,
2013-06-19 22:51:00,58.8,52.7,29.82,SE,135,0.0,0.0,80,0.00,,,0.00,pywws,2013-06-19 21:51:00,
2013-06-19 22:56:00,58.6,52.8,29.82,SE,135,0.0,0.0,81,0.00,,,0.00,pywws,2013-06-19 21:56:00,
2013-06-19 23:01:00,58.3,52.8,29.81,SE,135,0.0,0.0,82,0.00,,,0.00,pywws,2013-06-19 22:01:00,
2013-06-19 23:11:00,57.9,52.8,29.82,SE,135,0.0,0.0,83,0.00,,,0.00,pywws,2013-06-19 22:11:00,
2013-06-19 23:16:00,57.4,52.6,29.82,SE,135,0.0,0.0,84,0.00,,,0.00,pywws,2013-06-19 22:16:00,
2013-06-19 23:21:00,57.2,52.7,29.81,SE,135,0.0,0.0,85,0.00,,,0.00,pywws,2013-06-19 22:21:00,
2013-06-19 23:31:00,56.8,52.7,29.81,SE,135,0.0,0.0,86,0.00,,,0.00,pywws,2013-06-19 22:31:00,
2013-06-19 23:36:00,56.8,53.0,29.82,SE,135,0.0,0.0,87,0.00,,,0.00,pywws,2013-06-19 22:36:00,
2013-06-19 23:41:00,56.8,53.0,29.82,SE,135,0.0,0.0,87,0.00,,,0.00,pywws,2013-06-19 22:41:00,
2013-06-19 23:51:00,56.3,52.8,29.82,SE,135,0.0,0.0,88,0.00,,,0.00,pywws,2013-06-19 22:51:00,
2013-06-19 23:56:00,56.3,53.1,29.81,SE,135,0.0,0.0,89,0.00,,,0.00,pywws,2013-06-19 22:56:00,